Regional Weather Roundup
Issued by NWS

Home | Current Version | Previous Version | Graphics & Text | Print | Product List | Glossary On
Versions: 1 2 3 4 5 6 7 8 9 10 11 12 13 14 15 16 17 18 19 20 21 22 23 24 25 26 27 28 29 30 31 32 33 34 35 36 37 38 39 40 41 42 43 44 45 46 47 48 49 50
216
ASUS43 KIND 212209
RWRIN

WEATHER ROUNDUP FOR INDIANA
NATIONAL WEATHER SERVICE INDIANAPOLIS IN
500 PM EST SAT JAN 21 2017

NOTE: "FAIR" INDICATES FEW OR NO CLOUDS BELOW 12,000 FEET WITH NO
SIGNIFICANT WEATHER AND/OR OBSTRUCTIONS TO VISIBILITY.

* - STATION DOES NOT REPORT WEATHER SUCH AS PRECIPITATION OR FOG.

+ - STATION NOT QUALITY CONTROLLED BY THE NATIONAL WEATHER SERVICE.
    USE DATA WITH CAUTION...ESPECIALLY DEWPOINT AND RELATIVE
    HUMIDITY OBSERVATIONS.

INZ001>003-010>013-019-020-212300-
NORTHWEST INDIANA

CITY           SKY/WX    TMP DP  RH WIND       PRES   REMARKS
GARY /AIRPORT/ PTCLDY    61  46  59 SW14G25   29.50R
KNOX *+        CLEAR     59  30  33 S12G20    29.51R
LA PORTE +     CLEAR     59  50  72 S9G16     29.51R
MICHIGAN CITY+ CLEAR     59  50  72 S13       29.50R
MONTICELLO +   CLEAR     61  49  65 S12       29.52R
RENSSELAER +   CLEAR     61  52  72 S9        29.52R
VALPARAISO     PTCLDY    60  51  72 SW13      29.51R

$$

LMZ046-743>745-212300-
SOUTHERN LAKE MICHIGAN

STATION/POSITION TIME  TEMP    WIND        PRES    WAVE
                       AIR SEA DIR/SP/G            HT
                 (UTC) (F)     (DEG/KT/KT) (MB)    (FT)
BURNS HARBOR     2140   58     200/ 15/ 19  999.3R
MICHIGAN CITY    2140   59     170/ 13/ 17   N/A

$$

INZ004-005-014>016-021>024-212300-
NORTH CENTRAL INDIANA

CITY           SKY/WX    TMP DP  RH WIND       PRES   REMARKS
ELKHART        CLEAR     61  50  67 S12       29.52R
GOSHEN         CLEAR     60  49  66 S14       29.52S
LOGANSPORT +   CLEAR     59  52  77 S13       29.55R
PERU/GRISSOM   CLEAR     62  55  78 S10       29.54R
ROCHESTER +    CLEAR     63  50  63 S10G18    29.53S
SOUTH BEND     CLEAR     59  50  72 S10       29.52R
WARSAW +       CLEAR     59  45  58 S7        29.53R

$$

INZ006>009-017-018-025>027-212300-
NORTHEAST INDIANA

CITY           SKY/WX    TMP DP  RH WIND       PRES   REMARKS
ANGOLA *+      CLEAR     57  50  77 S7        29.55R
AUBURN +       CLEAR     61  50  67 CALM      29.57R
FORT WAYNE     PTCLDY    61  52  72 S8        29.57R
HUNTINGTON +   CLEAR     61  52  73 S10       29.55S
KENDALLVILLE + CLEAR     59  51  74 S10       29.55R

$$

INZ028-029-035-036-043>045-051>053-212300-
WEST CENTRAL INDIANA

CITY           SKY/WX    TMP DP  RH WIND       PRES   REMARKS
CRAWFORDSVL +  CLEAR     60  54  79 S10       29.55S
GREENCASTLE +  CLEAR     63  50  63 SW5       29.57S
LAFAYETTE      CLEAR     62  50  64 S10       29.52F
TERRE HAUTE    CLEAR     64  52  64 SW9       29.55

$$

INZ030>032-037>040-046>048-054>057-064-065-212300-
CENTRAL INDIANA

CITY           SKY/WX    TMP DP  RH WIND       PRES   REMARKS
CP ATTERBURY + CLEAR     64  50  59 SW9       29.58S
COLUMBUS       CLEAR     63  55  77 S10       29.59S
FISHERS *+     PTCLDY    61  55  82 S8        29.56F
FRANKFORT +    MOCLDY    64  55  74 SW7       29.57R
GREENWOOD *+   CLEAR     65  54  67 S9        29.58S
INDIANAPOLIS   PTCLDY    64  49  57 SW10      29.56S
-EAGLE CREEK   CLEAR     65  49  56 SW8       29.55S
KOKOMO +       CLEAR     62  53  72 S12       29.56R
MARION +       CLEAR     61  54  77 S12       29.57S
MT COMFORT *+  CLEAR     61  54  77 S6        29.58S
SHELBYVILLE    CLEAR     63  53  70 S12       29.57S
ZIONSVILLE +   CLEAR     62  50  64 SW15      29.56S

$$

INZ033-034-041-042-049-050-058-059-212300-
EAST CENTRAL INDIANA

CITY           SKY/WX    TMP DP  RH WIND       PRES   REMARKS
MUNCIE         CLEAR     63  53  70 S9G21     29.57S

$$

INZ060-061-067>069-081>083-085>088-212300-
SOUTHWEST INDIANA

CITY           SKY/WX    TMP DP  RH WIND       PRES   REMARKS
EVANSVILLE     CLEAR     67  48  50 S12       29.58S
HUNTINGBURG *+ PTCLDY    64  53  67 S10       29.60S
WASHINGTON +   CLEAR     65  49  57 SW10      29.57S

$$

INZ062-063-066-070>080-084-089>092-212300-
SOUTH CENTRAL AND SOUTHEAST INDIANA

CITY           SKY/WX    TMP DP  RH WIND       PRES   REMARKS
BLOOMINGTON    PTCLDY    65  49  56 SW12      29.57S
MADISON *+     MOCLDY    63  52  67 S10       29.63S
NORTH VERNON + CLEAR     64  54  68 S8        29.60S
SEYMOUR +      CLEAR     64  52  63 SW7       29.60R

$$





USA.gov is the U.S. government's official web portal to all federal, state and local government web resources and services.